Погода в Ронде

Испания     36°44′52″N   5°09′42″W
темп.,
°C
ветер,
м/с
пор.,
м/с
влажн.,
%
обл.,
%
осадки,
мм/ч
давл.,
гПа
погр.,
м
24 июля, сб
сб2423:00+25ссз22250 0.0 101411
02:00+23з01280 0.0 101411
05:00+21сз11290 0.0 101311
08:00+21сз11270 0.0 101312
11:00+29зсз34120 0.0 1013862
14:00+33з5690 0.0 10121192
17:00+33з5790 0.0 10121226
20:00+30з45120 0.0 1012793
25 июля, вс
вс2523:00+21зсз22310 0.0 101413
02:00+20зсз11313 0.0 101411
05:00+19ссз11371 0.0 101311
08:00+19зюз11390 0.0 101411
11:00+26зсз341992 0.0 1013863
14:00+29зсз56190 0.0 10131275
17:00+30зсз6721100 0.0 10121775
20:00+26з45400 0.0 1012890
26 июля, пн
пн2623:00+19зюз23695 0.0 101447
02:00+18зсз22720 0.0 101429
05:00+17сз11820 0.0 101412
08:00+17з11850 0.0 101422
11:00+23з33500 0.0 1014835
14:00+27зсз53365 0.0 10141543
17:00+29сз44303 0.0 10122064
20:00+28сз33330 0.0 10121546
27 июля, вт
вт2723:00+21ссз01500 0.0 101511
02:00+20юв21530 0.0 101511
05:00+18юв22690 0.0 101513
08:00+19юв22650 0.0 101522
11:00+26юв22390 0.0 1014934
14:00+31ююв43260 0.0 10142081
17:00+33ю34250 0.0 10122387
20:00+30юз22310 0.0 10121083
28 июля, ср
ср2823:00+21юв22640 0.0 101513
02:00+20юв21600 0.0 101512
05:00+19юв22530 0.0 101411
08:00+20юв22470 0.0 101413
11:00+29ююв22260 0.0 1014864
14:00+34ю33200 0.0 10131924
17:00+36ююз22180 0.0 10122370
20:00+32юз23250 0.0 1012817